Location: Edgewood Acres Mobile Home Park
(42.3561°N, 73.6122°W)
Time: 04:47:55
(UTC+00:00)

Meteor 1-25 Rocket - Pass Details

Date: 08 September 2024
Orbit: 837 x 889 km, 81.2° (Epoch: 08 October)

Event Time Altitude Azimuth Distance (km) Brightness Sun altitude
Rises 23:33:14 0° 189° (S) 3,448 7.4 -4.1°
Reaches altitude 10° 23:35:40 10° 189° (S) 2,507 6.7 -4.5°
Maximum altitude 23:41:23 87° 278° (W) 867 4.4 -5.6°
Drops below altitude 10° 23:47:03 10° 9° (N) 2,488 6.7 -6.6°
Sets 23:49:27 0° 10° (N) 3,421 7.4 -7.0°
